Printer-friendly version

IAU Minor Planet Center

Minor Planet Center

MPEC 2003-F30 : 2001 FO32

The following Minor Planet Electronic Circular may be linked-to from your own Web pages, but must not otherwise be redistributed electronically.


Read MPEC 2003-F29 Read MPEC 2003-F31


M.P.E.C. 2003-F30                                Issued 2003 Mar. 24, 15:50 UT

     The Minor Planet Electronic Circulars contain information on unusual
         minor planets and routine data on comets.  They are published
   on behalf of Commission 20 of the International Astronomical Union by the
          Minor Planet Center, Smithsonian Astrophysical Observatory,
                          Cambridge, MA 02138, U.S.A.

             Prepared using the Tamkin Foundation Computer Network

                              MPC@CFA.HARVARD.EDU
          URL http://cfa-www.harvard.edu/iau/mpc.html  ISSN 1523-6714

                                   2001 FO32

                           Revision to MPEC 2001-F32

Additional Observations:
     K01F32O VC2003 03 14.48867 08 52 59.55 -16 21 00.1                      413
     K01F32O  C2003 03 14.49487 08 52 58.93 -16 20 51.7                      413
     K01F32O  C2003 03 24.41215 08 37 48.47 -12 10 18.2                      413
     K01F32O  C2003 03 24.42368 08 37 47.53 -12 10 00.0                      413

Observer details:
413 Siding Spring.  Observers G. J. Garradd, R. H. McNaught.  1.0-m f/8
    reflector + CCD.

First and last observations above in comparison with prediction:
Residuals in seconds of arc (or two decimals in degrees), reference and Delta-T
030314 413 0.60- 0.01+    030324 413 0.40- 0.15-    MPO 13828   +5.1 day

Orbital elements:
2001 FO32                                                            PHA 0.017A
Epoch 2003 June 10.0 TT = JDT 2452800.5                 MPC
M 336.16039              (2000.0)            P               Q
n   0.44420473     Peri.  123.14569     +0.56906368     +0.82200462
a   1.7011682      Node   181.98933     -0.78925754     +0.55344617
e   0.8266396      Incl.   38.88786     +0.23073591     -0.13418547
P   2.22           H   17.8           G   0.15           U   4
Residuals in seconds of arc
010323 704  0.3+  0.1+    010326 670  0.3-  0.1-    010329 938  1.2-  1.0+
010323 704  0.1+  0.2+    010326 670  0.2-  0.5+    010329 938  0.3+  0.1-
010323 704  0.3+  0.2-    010326 428  0.5-  0.6+    010329 938  0.9+  0.5-
010323 704  0.2+  0.2+    010326 428  0.5+  0.3-    010329 938  0.5-  0.2+
010323 704  0.1+  0.0     010326 428  0.2+  0.1-    010329 938  0.2-  0.9-
010323 952  0.6-  0.1-    010326 428  0.6+  0.2-    010329 938 (2.9+  2.3-)
010323 952  0.4-  0.1-    010326 360  0.3-  0.2-    010329 938  0.1+  1.4-
010323 952  0.0   0.1+    010326 360  0.0   0.3-    010329 938  0.7-  0.1-
010323 952  0.7-  0.1-    010326 360  0.2-  0.1-    010329 938 (2.3-  0.1-)
010323 946  0.7-  1.1+    010326 938  0.8-  0.9+    010329 938  0.3+  0.7+
010323 946  0.5+  0.1-    010326 938  0.6-  0.1+    010329 938  1.3+  0.6+
010323 946  0.9+  1.0+    010326 938  0.4-  0.9+    010329 938 (3.3-  0.8+)
010324 854  0.6+  0.3+    010326 938  0.4-  0.2+    010330 670  0.5-  0.1+
010324 854  1.2+  0.9+    010326 938  1.4-  0.7+    010330 670  0.2-  0.1-
010324 854  0.8+  0.3-    010326 938  0.4+  0.2+    010330 670  0.2-  0.2-
010324 428  0.5+  0.3-    010326 938  0.5+  0.0     010330 611  0.1+  0.2-
010324 428  0.3+  0.6-    010326 938  0.3-  0.3-    010330 611  0.0   0.3+
010324 428  0.5+  0.5-    010326 938  0.2-  1.6+    010331 540  1.1+  0.3-
010324 428  0.6+  0.3-    010327 670  0.2+  0.3-    010331 540  0.3-  0.4+
010324 428  1.6+  0.8-    010327 670  0.4+  0.7+    010331 540  0.0   0.6+
010324 946  0.2+  0.1-    010327 670  0.1-  0.7+    010331 540  0.6+  0.2-
010324 946  0.1+  0.2-    010327 428  0.7+  0.0     010401 611  0.5-  0.5-
010324 946  0.2-  0.2-    010327 428  1.1+  0.1+    010401 611  0.7+  0.5-
010324 946  0.3-  0.1-    010327 428  0.7+  0.1+    010401 611  0.1-  0.4+
010324 157  0.1-  0.3+    010327 428  0.4+  0.1+    010402 540  0.6+  0.5+
010324 157  0.5+  0.9-    010327 428  0.1+  0.5+    010402 540  1.8-  0.0
010324 157  1.7+  1.3-    010327 611  0.6-  0.2+    010402 540 (2.3-  0.8+)
010324 157  0.7+  0.3-    010327 611  0.4-  0.3+    010403 118  0.6+  0.8+
010324 165  0.4-  0.3+    010327 611  0.4+  0.4-    010403 118  0.3+  0.4+
010324 165  0.1-  0.1+    010327 587  0.1-  0.5+    010403 118  0.5+  0.3-
010324 165  0.0   0.2+    010327 587  0.3+  0.4+    010404 540  0.8-  0.4-
010324 165  0.1-  0.2+    010328 428  0.4+  0.0     010404 540  0.7+  0.2-
010324 165  0.0   0.6+    010328 428  0.4+  0.5-    010404 540  0.9-  0.2-
010325 859  0.9-  0.7+    010328 428  0.2+  0.4-    010404 540  0.6-  0.6+
010325 859  0.3-  0.4+    010328 428  0.8+  0.1-    010404 540  0.5-  0.8+
010325 859  1.1-  0.7+    010329 938 (4.9-  0.8+)   010404 540  0.5+  0.0
010325 859  1.4-  0.2+    010329 938 (3.8-  2.2+)   010405 413  0.0   0.1-
010325 859 (2.5-  0.1+)   010329 938 (4.7+  4.1-)   010405 413  0.1+  0.0
010326 726  1.3-  0.5-    010329 938  0.4-  0.4-    010405 413  0.1+  0.3+
010326 726  0.8-  0.6-    010329 938 (5.4-  0.5-)   030314 413  0.2-  0.5+
010326 726  1.6-  0.7-    010329 938  0.3+  0.8-    030314 413  0.2+  0.1-
010326 726  0.6-  0.8-    010329 938  0.0   0.4-    030324 413  0.0   0.4-
010326 726  0.5-  0.9-    010329 938  0.2-  1.4-    030324 413  0.1+  0.1-
010326 726  0.7-  0.7-    010329 938  0.7+  0.3-
010326 670  0.1-  0.1+    010329 938  0.4-  0.6-

Ephemeris:
2001 FO32                a,e,i = 1.70, 0.83, 39                  q = 0.2949
Date    TT    R. A. (2000) Decl.     Delta      r     Elong.  Phase     V
2003 03 22    08 41.14   -13 12.9    1.297    2.068   128.3    22.2    21.0
2003 04 01    08 29.01   -08 52.0    1.306    1.978   117.6    26.6    21.1
2003 04 11    08 21.44   -04 37.4    1.333    1.884   106.7    30.6    21.1
2003 04 21    08 18.26   -00 41.6    1.368    1.783    96.2    34.1    21.2
2003 05 01    08 19.06   +02 50.5    1.405    1.676    86.4    36.9    21.2
2003 05 11    08 23.36   +05 58.5    1.436    1.561    77.2    39.1    21.1
2003 05 21    08 30.67   +08 45.5    1.456    1.439    68.6    40.9    21.0
2003 05 31    08 40.61   +11 16.2    1.461    1.308    60.7    42.5    20.9

Brian G. Marsden             (C) Copyright 2003 MPC           M.P.E.C. 2003-F30

Read MPEC 2003-F29 Read MPEC 2003-F31


Our Web policy. Index to the CBAT/MPC/ICQ pages.


Valid HTML 4.01!